Flag for U.S.A. Weather past 2 weeks in Osage City, Kansas, U.S.A.

Now
41 °F

Overcast.


Feels Like: 36 °F
Forecast: 36 / 45 °F
Wind: 7 mph from North

Location: Forbes Field

Current Time: Dec 26, 2014 at 2:12:11 PM

Latest Report: Dec 26, 2014 at 12:53 PM


Visibility: 7 mi

Pressure: 29.93 "Hg

Humidity: 74%

Dew point: 33 °F

Location of Osage CityLocation

Historic Weather in Osage City — Graph

°F

Osage City temperature yesterday

Maximum temperature yesterday: 55 °F (at 1:53 PM)
Minimum temperature yesterday: 32 °F (at 12:53 AM)
Average temperature yesterday: 44 °F

Past Weeks' High & Low Weather Summary

 TemperatureHumidityPressure
High61 °F (Dec 14, 1:53 PM)93% (Dec 11, 1:53 PM)30.39 "Hg (Dec 11, 1:53 PM)
Low25 °F (Dec 16, 7:53 PM)38% (Dec 25, 2:53 PM)29.45 "Hg (Dec 22, 1:53 PM)
Average40 °F81%29.99 "Hg
* Reported Dec 11 12:53 PM — Dec 26 12:53 PM, Osage City, Weather by CustomWeather, © 2014

Note: Actual official high and low records may vary slightly from our data, if they occured in-between our weather recording intervals... More about our weather records

Advertising

Osage City weather history for previous 24 hours

 ConditionsComfort  
Time TempWeatherWind HumidityBarometerVisibility
12:53 PM
Dec 26
41 °FOvercast.7 mph74%29.93 "Hg7 mi
11:53 AM40 °FOvercast.9 mph73%29.94 "Hg9 mi
10:53 AM40 °FSunny.8 mph70%29.96 "Hg10 mi
9:53 AM39 °FSunny.8 mph73%29.95 "Hg10 mi
8:53 AM41 °FPassing clouds.7 mph74%29.92 "Hg10 mi
7:53 AM41 °FSunny.3 mph74%29.90 "Hg10 mi
6:53 AM42 °FClear.3 mph71%29.88 "Hg10 mi
5:53 AM42 °FClear.5 mph68%29.85 "Hg10 mi
4:53 AM44 °FClear.6 mph63%29.83 "Hg10 mi
3:53 AM45 °FClear.8 mph58%29.82 "Hg10 mi
2:53 AM46 °FClear.9 mph56%29.80 "Hg10 mi
1:53 AM46 °FClear.9 mph56%29.79 "Hg10 mi
12:53 AM47 °FClear.12 mph52%29.77 "Hg10 mi
11:53 PM
Dec 25
48 °FClear.14 mph50%29.76 "Hg10 mi
10:53 PM49 °FClear.16 mph48%29.75 "Hg10 mi
9:53 PM50 °FClear.16 mph46%29.73 "Hg10 mi
8:53 PM49 °FClear.13 mph50%29.73 "Hg10 mi
7:53 PM50 °FClear.10 mph46%29.73 "Hg10 mi
6:53 PM49 °FClear.14 mph50%29.71 "Hg10 mi
5:53 PM50 °FClear.12 mph48%29.68 "Hg10 mi
4:53 PM52 °FSunny.17 mph43%29.65 "Hg10 mi
3:53 PM53 °FSunny.18 mph41%29.65 "Hg10 mi
2:53 PM54 °FSunny.23 mph38%29.62 "Hg10 mi
Weather by CustomWeather, © 2014

See weather overviewHow to use our weather pages